Content
SEND FEEDBACK

Daily
Averages
Monthly
Summary
United States of America

SOUTH LAKE TAHOE - AIRPORT, CALIFORNIA


Home > North America > United States > California
Elevation: 6250 feet     Latitude: 38 54N     Longitude: 120 00W

WEATHER
 
SELECT A DAY
Number of Records: 176,494;   Date Range: 1/1/95 - 9/29/14
 
SHARE

PRINT THIS DATA

[ ← Previous Day ]
WEATHER ALMANAC - APRIL 19, 2013
[ Next Day → ]
[ °C ]   °F
Weather ElementAverageHighLow
Temperature45.4 °F59 °F (2:53 pm)28 °F (5:53 am)
Dewpoint24.5 °F28.9 °F (6:53 pm)21 °F (3:53 am)
Humidity48.2 %75 % (5:53 am)26 % (12:53 pm)
Barometer30.23 in30.31 in (7:53 am)30.15 in (5:53 pm)
Wind Speed4.3 mph13.8 mph (4:53 pm)
Wind Gust26.5 mph (1:53 pm)
Weather ElementAverage
Visibility10 mi
Wind DirectionENE (70.5 °)

Weather ElementTotal
Precipitation---
Heating Degree Days21.5 (Base 65)
Averaged from 20 records on April 19, 2013
WEATHER CONDITIONS BREAKOUT
WIND DIRECTION BREAKOUT
WEATHER BY HOUR - APRIL 19, 2013
[ °C ]   °F
Local TimeTemperatureDewpointHumidityBarometerVisibilityWind DirectionWind SpeedGust SpeedPrecipitationEventsConditions
1:53 AM30.9 °F21.9 °F69 %30.29 in10.0 miSSW (210°)3.5 mphClear
2:53 AM30.0 °F21.9 °F72 %30.28 in10.0 miCalmClear
3:53 AM28.9 °F21.0 °F72 %30.28 in10.0 miCalmClear
4:53 AM28.9 °F21.0 °F72 %30.28 in10.0 miSouth (190°)3.5 mphClear
5:53 AM28.0 °F21.0 °F75 %30.28 in10.0 miCalmClear
6:53 AM28.0 °F21.0 °F75 %30.30 in10.0 miCalmClear
7:53 AM32.0 °F24.1 °F73 %30.31 in10.0 miCalmClear
8:53 AM43.0 °F25.0 °F49 %30.27 in10.0 miCalmClear
9:53 AM51.1 °F24.1 °F35 %30.26 in10.0 miCalmClear
10:53 AM57.9 °F25.0 °F28 %30.23 in10.0 miVariable5.8 mphClear
11:53 AM57.0 °F25.0 °F29 %30.25 in10.0 miVariable6.9 mphClear
12:53 PM57.9 °F23.0 °F26 %30.22 in10.0 miSSW (210°)11.5 mph21.9 mphClear
1:53 PM57.9 °F24.1 °F27 %30.20 in10.0 miSSW (210°)12.7 mph26.5 mphClear
2:53 PM59.0 °F25.0 °F27 %30.17 in10.0 miSSW (200°)8.1 mph19.6 mphClear
3:53 PM59.0 °F26.1 °F28 %30.17 in10.0 miSouth (190°)12.7 mph20.7 mphClear
4:53 PM57.9 °F28.0 °F32 %30.16 in10.0 miSSW (200°)13.8 mph21.9 mphClear
5:53 PM57.0 °F27.0 °F32 %30.15 in10.0 miCalmClear
6:53 PM53.1 °F28.9 °F40 %30.17 in10.0 miVariable6.9 mphClear
7:53 PM48.0 °F28.0 °F46 %30.17 in10.0 miCalmClear
8:53 PM43.0 °F28.0 °F56 %30.18 in10.0 miCalmClear
Hourly data recorded from KTVL, located miles away from South Lake Tahoe - Airport, California







STORIES FROM OUR PARTNERS